loading
|

MIDAS 5 DEB, 19981

Orbit data source: Space-Track

MIDAS 5 DEB, 19981 is space debris originally from a launch on Fri, 26 Oct 1962 UTC launched from the Air Force Western Test Range (AFWTR). Debris objects in space refer to the collection of defunct objects orbiting the Earth. Examples of debris include non-operational satellites, rocket bodies, and fragments generated from explosions, collisions, or faulty payload assembly.

Loading next visibility...
Loading greatness...
MIDAS 5 DEB details
Identifier
19981, 1962-010H
Orbit
Active
Last TLE update16 hours ago
Origin
Flag of USUSAF SSD (US)
ManufacturerMIT-LL
MissionSpacecraft
Bus & MotorWESTFORD DRAG, Unknown motor
Mass~1 kg wet, ~1 kg dry
Launch date (UTC)
1962-10-26 (62 years ago)
Launch vehicleUnknown
Launch site
Air Force Western Test Range (AFWTR)
Object type
Payload
Rocket body
Debris
Shape & HBRUnknown
Radar Cross SectionMedium (>0.1 m² and <1 m²)

Expand to show TLE details & history

TLE from 16 hours ago
0 MIDAS 5 DEB
1 19981U 62010H   24279.29515216  .00000059  00000-0  10965-1 0  9998
2 19981  86.6780  45.0443 0319192 336.1478  22.4914  9.42932602247374
Epoch: 2024-10-05T07:05Z
Definitive object data (Epoch: 2024-10-05T07:05:01.146Z)
Latitude-0.00006°
Longitude-75.66399°
Altitude2,810.655 km
Speed6.683 km/s
True Right ascension03h 00m 10s
True Declination0° 00' 00"
Sunlit
Object was in full shadow at TLE epoch
Predictive object data (real-time)
Latitude75.94467°
Longitude-62.40977°
Altitude3,147.065 km
Speed6.459 km/s
Apparent Right ascension04h 33m 50s
Apparent Declination35° 41' 56"
Sunlit
Object is in daylight
Predictive observer data (real-time)
Local Sidereal Time16:53:00
Azimuth4.012° NNE
Elevation-14.256°
Doppler factor1
Orbital elements
Apogee3,385.722 km
Perigee2,781.693 km
Semi-major axis9,461.845 km
Eccentricity0.0319192
Inclination86.678°
RAAN45.0443°
Arg. of periapsis336.1478°
True anomaly23.94394°
Mean anomaly22.4914°
Eccentric anomaly23.21221°
Mean motion2.35819 °/min
BSTAR0.010965
Period152.66 mins
No data available

MIDAS 5 DEB Visibility forecast

Observer location: 39.9160978°, -105.1181434

MIDAS 5 DEB is not visible in the next 10 days
Span
Click to sort rows by Start time (UTC) header in descending order
Start Az.
Max El. time (UTC)
Max El. Az.
Max El.
End time (UTC)
End Az.